Weather History for Rockland, ME

Change the Weather History Date:

Saturday, November 9, 2013

  Actual Average Record
Temperature  
Mean Temperature 34 °F -  
Max Temperature 44 °F 44 °F 62 °F (2006)
Min Temperature 24 °F 32 °F 21 °F (1999)
Degree Days  
Heating Degree Days 31    
Moisture  
Dew Point 21 °F    
Average Humidity 56    
Maximum Humidity 93    
Minimum Humidity 36    
Precipitation  
Precipitation 0.00 in - - ()
Sea Level Pressure  
Sea Level Pressure 30.06 in    
Wind  
Wind Speed 11 mph (West)    
Max Wind Speed 21 mph    
Max Gust Speed 29 mph    
Visibility 10 miles    
Events      
Averages and records for this station are not official NWS values.
T = Trace of Precipitation, MM = Missing Value Source: NWS Daily Summary

Daily Weather History Graph

Daily Weather History Graph

Search for Another Location

Airport:

Trip Planner

Search our weather history database for the weather conditions in past years. The results will help you decide how hot, cold, wet, or windy it might be!

Date:

Astronomy

Nov. 09, 2013 Rise Set
Actual Time 6:23 AM EST 4:16 PM EST
Civil Twilight 5:53 AM EST 4:46 PM EST
Nautical Twilight 5:18 AM EST 5:21 PM EST
Astronomical Twilight 4:44 AM EST 5:55 PM EST
Moon 11:56 AM EST (11/9) 10:45 PM EST (11/9)
Length of Visible Light 10h 53m
Length of Day
9h 52m
Waxing Crescent, 44% of the Moon is Illuminated
Nov 9
Waxing Crescent
Nov 10
First Quarter
Nov 17
Full
Nov 25
Last Quarter
Dec 2
New

Hourly Weather History & Observations

Time (EST) Temp. Windchill Dew Point Humidity Pressure Visibility Wind Dir Wind Speed Gust Speed Precip Events Conditions
12:15 AM 33.8 °F 24.3 °F 23.0 °F 65% 29.95 in 10.0 mi West 13.8 mph - N/A   Clear
12:35 AM 35.6 °F 28.0 °F 23.0 °F 60% 29.96 in 10.0 mi West 10.4 mph - N/A   Clear
12:55 AM 33.8 °F 24.8 °F 23.0 °F 65% 29.96 in 10.0 mi West 12.7 mph - N/A   Clear
1:15 AM 35.6 °F 27.1 °F 23.0 °F 60% 29.96 in 10.0 mi West 12.7 mph - N/A   Scattered Clouds
1:35 AM 35.6 °F 26.2 °F 23.0 °F 60% 29.97 in 10.0 mi West 15.0 mph - N/A   Mostly Cloudy
1:55 AM 35.6 °F 27.1 °F 21.2 °F 56% 29.97 in 10.0 mi West 12.7 mph - N/A   Partly Cloudy
2:15 AM 35.6 °F 26.2 °F 21.2 °F 56% 29.97 in 10.0 mi West 15.0 mph - N/A   Scattered Clouds
2:35 AM 35.6 °F 24.8 °F 21.2 °F 56% 29.97 in 10.0 mi West 19.6 mph 24.2 mph N/A   Partly Cloudy
2:55 AM 35.6 °F 25.9 °F 21.2 °F 56% 29.98 in 10.0 mi West 16.1 mph - N/A   Partly Cloudy
3:15 AM 35.6 °F 25.5 °F 21.2 °F 56% 29.99 in 10.0 mi West 17.3 mph 21.9 mph N/A   Clear
3:35 AM 35.6 °F 26.6 °F 21.2 °F 56% 30.00 in 10.0 mi West 13.8 mph 21.9 mph N/A   Clear
3:55 AM 35.6 °F 27.1 °F 21.2 °F 56% 30.01 in 10.0 mi West 12.7 mph 18.4 mph N/A   Clear
4:15 AM 35.6 °F 28.0 °F 21.2 °F 56% 30.02 in 10.0 mi West 10.4 mph 18.4 mph N/A   Partly Cloudy
4:35 AM 35.6 °F 27.1 °F 21.2 °F 56% 30.03 in 10.0 mi West 12.7 mph - N/A   Partly Cloudy
4:55 AM 35.6 °F 28.0 °F 21.2 °F 56% 30.03 in 10.0 mi West 10.4 mph - N/A   Mostly Cloudy
5:15 AM 35.6 °F 27.5 °F 21.2 °F 56% 30.03 in 10.0 mi West 11.5 mph - N/A   Mostly Cloudy
5:35 AM 35.6 °F 27.5 °F 21.2 °F 56% 30.03 in 10.0 mi West 11.5 mph - N/A   Scattered Clouds
5:55 AM 35.6 °F 28.0 °F 21.2 °F 56% 30.04 in 10.0 mi WSW 10.4 mph - N/A   Clear
6:15 AM 35.6 °F 28.6 °F 21.2 °F 56% 30.04 in 10.0 mi WSW 9.2 mph - N/A   Clear
6:35 AM 33.8 °F 26.4 °F 21.2 °F 60% 30.05 in 10.0 mi West 9.2 mph - N/A   Clear
6:55 AM 35.6 °F 27.1 °F 21.2 °F 56% 30.06 in 10.0 mi West 12.7 mph - N/A   Clear
7:15 AM 35.6 °F 26.6 °F 21.2 °F 56% 30.07 in 10.0 mi West 13.8 mph 20.7 mph N/A   Clear
7:35 AM 37.4 °F 27.8 °F 21.2 °F 52% 30.07 in 10.0 mi West 17.3 mph 23.0 mph N/A   Clear
7:55 AM 37.4 °F 28.2 °F 19.4 °F 48% 30.08 in 10.0 mi West 16.1 mph 24.2 mph N/A   Clear
8:15 AM 37.4 °F 27.2 °F 19.4 °F 48% 30.08 in 10.0 mi West 19.6 mph 24.2 mph N/A   Clear
8:35 AM 39.2 °F 30.8 °F 19.4 °F 45% 30.09 in 10.0 mi WNW 15.0 mph 27.6 mph N/A   Clear
8:55 AM 39.2 °F 29.3 °F 19.4 °F 45% 30.09 in 10.0 mi WNW 20.7 mph 28.8 mph N/A   Clear
9:15 AM 39.2 °F 30.5 °F 19.4 °F 45% 30.09 in 10.0 mi WNW 16.1 mph 24.2 mph N/A   Clear
9:35 AM 39.2 °F 29.6 °F 19.4 °F 45% 30.08 in 10.0 mi West 19.6 mph 24.2 mph N/A   Clear
9:55 AM 39.2 °F 30.8 °F 19.4 °F 45% 30.09 in 10.0 mi WNW 15.0 mph 26.5 mph N/A   Clear
10:15 AM 41.0 °F 34.3 °F 19.4 °F 42% 30.09 in 10.0 mi WNW 11.5 mph 20.7 mph N/A   Clear
10:35 AM 41.0 °F 33.1 °F 19.4 °F 42% 30.08 in 10.0 mi WNW 15.0 mph 24.2 mph N/A   Clear
10:55 AM 41.0 °F 35.2 °F 19.4 °F 42% 30.08 in 10.0 mi WNW 9.2 mph 18.4 mph N/A   Clear
11:15 AM 41.0 °F 31.9 °F 19.4 °F 42% 30.07 in 10.0 mi West 19.6 mph 26.5 mph N/A   Clear
11:35 AM 42.8 °F 35.1 °F 19.4 °F 39% 30.07 in 10.0 mi WNW 16.1 mph 20.7 mph N/A   Clear
11:55 AM 42.8 °F 35.1 °F 19.4 °F 39% 30.06 in 10.0 mi West 16.1 mph 21.9 mph N/A   Clear
12:15 PM 42.8 °F 34.8 °F 19.4 °F 39% 30.05 in 10.0 mi West 17.3 mph 21.9 mph N/A   Clear
12:35 PM 42.8 °F 37.0 °F 19.4 °F 39% 30.05 in 10.0 mi WNW 10.4 mph - N/A   Clear
12:55 PM 42.8 °F 38.6 °F 19.4 °F 39% 30.05 in 10.0 mi WNW 6.9 mph - N/A   Clear
1:15 PM 44.6 °F 39.7 °F 19.4 °F 37% 30.05 in 10.0 mi WNW 9.2 mph 17.3 mph N/A   Clear
1:35 PM 42.8 °F 36.2 °F 19.4 °F 39% 30.05 in 10.0 mi West 12.7 mph 20.7 mph N/A   Clear
1:55 PM 44.6 °F 39.7 °F 19.4 °F 37% 30.05 in 10.0 mi West 9.2 mph - N/A   Clear
2:15 PM 42.8 °F 38.0 °F 17.6 °F 36% 30.05 in 10.0 mi NW 8.1 mph - N/A   Clear
2:35 PM 42.8 °F 38.6 °F 17.6 °F 36% 30.05 in 10.0 mi WNW 6.9 mph - N/A   Clear
2:55 PM 42.8 °F 37.5 °F 17.6 °F 36% 30.05 in 10.0 mi WNW 9.2 mph - N/A   Clear
3:15 PM 42.8 °F 38.0 °F 17.6 °F 36% 30.05 in 10.0 mi WNW 8.1 mph - N/A   Clear
3:35 PM 41.0 °F 38.0 °F 17.6 °F 39% 30.06 in 10.0 mi WNW 4.6 mph - N/A   Clear
3:55 PM 41.0 °F - 17.6 °F 39% 30.06 in 10.0 mi Calm Calm - N/A   Clear
4:15 PM 39.2 °F 37.0 °F 17.6 °F 42% 30.06 in 10.0 mi WNW 3.5 mph - N/A   Clear
4:35 PM 39.2 °F - 19.4 °F 45% 30.07 in 10.0 mi Calm Calm - N/A   Clear
4:55 PM 37.4 °F - 19.4 °F 48% 30.08 in 10.0 mi Calm Calm - N/A   Clear
5:15 PM 37.4 °F 34.9 °F 19.4 °F 48% 30.08 in 10.0 mi WSW 3.5 mph - N/A   Clear
5:35 PM 33.8 °F - 21.2 °F 60% 30.09 in 10.0 mi Calm Calm - N/A   Clear
5:55 PM 33.8 °F 30.8 °F 21.2 °F 60% 30.09 in 10.0 mi WNW 3.5 mph - N/A   Clear
6:15 PM 30.2 °F - 23.0 °F 75% 30.10 in 10.0 mi Calm Calm - N/A   Clear
6:35 PM 32.0 °F 28.7 °F 21.2 °F 64% 30.10 in 10.0 mi NW 3.5 mph - N/A   Clear
6:55 PM 30.2 °F - 21.2 °F 69% 30.10 in 10.0 mi Calm Calm - N/A   Clear
7:15 PM 28.4 °F - 21.2 °F 74% 30.10 in 10.0 mi Calm Calm - N/A   Clear
7:35 PM 28.4 °F - 21.2 °F 74% 30.10 in 10.0 mi Calm Calm - N/A   Clear
7:55 PM 28.4 °F 24.6 °F 21.2 °F 74% 30.10 in 10.0 mi West 3.5 mph - N/A   Clear
8:15 PM 30.2 °F - 21.2 °F 69% 30.11 in 10.0 mi Calm Calm - N/A   Clear
8:35 PM 28.4 °F - 21.2 °F 74% 30.11 in 10.0 mi Calm Calm - N/A   Clear
8:55 PM 26.6 °F 22.6 °F 21.2 °F 80% 30.11 in 10.0 mi West 3.5 mph - N/A   Clear
9:15 PM 26.6 °F - 19.4 °F 74% 30.11 in 10.0 mi Calm Calm - N/A   Clear
9:35 PM 26.6 °F - 21.2 °F 80% 30.11 in 10.0 mi Calm Calm - N/A   Partly Cloudy
9:55 PM 26.6 °F - 21.2 °F 80% 30.11 in 10.0 mi Calm Calm - N/A   Partly Cloudy
10:15 PM 24.8 °F - 21.2 °F 86% 30.11 in 10.0 mi Calm Calm - N/A   Partly Cloudy
10:35 PM 26.6 °F - 21.2 °F 80% 30.10 in 10.0 mi Calm Calm - N/A   Scattered Clouds
10:55 PM 26.6 °F - 21.2 °F 80% 30.10 in 10.0 mi Calm Calm - N/A   Scattered Clouds
11:15 PM 28.4 °F - 24.8 °F 86% 30.09 in 10.0 mi Calm Calm - N/A   Clear
11:35 PM 28.4 °F - 24.8 °F 86% 30.09 in 10.0 mi Calm Calm - N/A   Scattered Clouds
11:55 PM 28.4 °F - 26.6 °F 93% 30.09 in 10.0 mi Calm Calm - N/A   Mostly Cloudy